Regional Weather Roundup
Issued by NWS

Home | Current Version | Previous Version | Graphics & Text | Print | Product List | Glossary On
Versions: 1 2 3 4 5 6 7 8 9 10 11 12 13 14 15 16 17 18 19 20 21 22 23 24 25 26 27 28 29 30 31 32 33 34 35 36 37 38 39 40 41 42 43 44 45 46 47 48 49 50
000
ASUS43 KTOP 282208
RWRKS

WEATHER ROUNDUP FOR KANSAS
NATIONAL WEATHER SERVICE GOODLAND KS
500 PM CDT WED JUN 28 2017

NOTE:  "FAIR" INDICATES FEW OR NO CLOUDS BELOW 12,000 FEET WITH NO
SIGNIFICANT WEATHER AND/OR OBSTRUCTIONS TO VISIBILITY.

KSZ001>006-013>018-027>032-041>047-282300-
NORTHWEST KANSAS

CITY           SKY/WX    TMP DP  RH WIND       PRES   REMARKS
GOODLAND       SUNNY     89  48  24 S8        29.79F
HAYS           SUNNY     94  66  39 S10       29.70F HX  97
HILL CITY      SUNNY     93  62  35 E6        29.71F
RUSSELL        PTSUNNY   95  65  37 SW12      29.69F HX  97
$$

KSZ061>065-074>080-084>089-282300-
SOUTHWEST KANSAS

CITY           SKY/WX    TMP DP  RH WIND       PRES   REMARKS
DODGE CITY     SUNNY     96  61  31 S20       29.71F HX  96
ELKHART          N/A     94  55  26 SE6         N/A
GARDEN CITY    SUNNY     95  56  26 NE7       29.73F
GREAT BEND     MOSUNNY   96  67  38 S22       29.69F HX 100
LIBERAL        SUNNY     95  57  27 S10       29.74F
PRATT          MOSUNNY   93  60  33 S26       29.73F
$$

KSZ066>073-081>083-090>101-282300-
SOUTHEAST KANSAS

CITY           SKY/WX    TMP DP  RH WIND       PRES   REMARKS
CHANUTE        MOSUNNY   91  70  49 S23G31    29.80F HX  96
COFFEYVILLE    SUNNY     90  70  51 S22G28    29.82F HX  95
HUTCHINSON     MOSUNNY   97  61  30 S23G35    29.72F HX  97
MEDICINE LODGE   N/A     96  60  30 S21G29    29.71S HX  96
NEWTON         MOSUNNY   93  64  38 S26G35    29.74F
PARSONS        MOSUNNY   89  69  51 S12G29    29.83F
WICHITA INTL   MOSUNNY   94  65  38 S24G36    29.73F HX  96
WICHITA JABRA  SUNNY     90  66  45 S21G30    29.75F
WICHITA MCCONL MOSUNNY   91  64  40 SW20G30   29.75F
WINFIELD       SUNNY     90  67  46 S22G32    29.78F
$$

KSZ007>012-019>026-033>040-048>060-102>105-282300-
NORTHEAST KANSAS

CITY           SKY/WX    TMP DP  RH WIND       PRES   REMARKS
CONCORDIA      MOSUNNY   95  66  38 SW20G26   29.69F HX  98
EMPORIA        MOSUNNY   89  69  51 S22G30    29.76F
LAWRENCE       MOSUNNY   90  70  51 S21G28    29.74F HX  95
MANHATTAN      MOSUNNY   95  68  41 S20G25    29.69F HX  99
MARYSVILLE     PTSUNNY   91  70  49 SW14G25   29.67F HX  97
OLATHE IND     MOSUNNY   89  69  51 S17G29    29.77F
OLATHE EXE     MOSUNNY   87  70  56 S20G31    29.77F
SALINA         MOSUNNY  100  62  28 SW24G31   29.69F HX 101
TOPEKA BILLARD MOSUNNY   90  71  53 S16G28    29.73F HX  96
TOPEKA FORBES  MOSUNNY   91  71  51 S18G29    29.74F HX  97
$$




USA.gov is the U.S. government's official web portal to all federal, state and local government web resources and services.